International Virtual Aviation Organisation

Russian Federation and Kazakhstan MCD

 

Карточка аэропорта UNBB

Внимание!
Информация на этой странице в стадии наполнения.
Если вы не увидели какой-то информации, или заметили неточность - пожалуйста сообщите нам!
Спасибо!
Команда RU-STAFF
Название аэропортаМихайловка
Название аэропорта (англ.)Mikhaylovka
Превышение837 ft. (255.1 m.)
Координаты53°21.798', 83°32.382'
Высота перехода700m
Эшелон переходаFL050
Коды ответчика5301-5317
Зона ОрВДНовосибирск РПИ (UNNT)
Данные METARUNBB 091430Z 07002MPS CAVOK 25/12 Q1002 R06/CLRD66 NOSIG RMK QFE730
Проноз погоды (TAF)UNBB 091400Z 0915/1015 08003MPS 9999 SCT040CB TEMPO 1005/1015 15005G12MPS SCT020CB PROB40 TEMPO 1005/1015 -TSRA
NOTAMshow/hide NOTAM
AWOS   TABLE

Информация о ВПП

ВПП Длина ВПП (м.) Покрытие Курс ВПП Частота ILS
062853Асфальтобетон59 
242853Асфальтобетон239108.7

Диспетчерские позиции




Спутниковое изображение